CST,Max TemperatureF,Mean TemperatureF,Min TemperatureF,Max Dew PointF,MeanDew PointF,Min DewpointF,Max Humidity, Mean Humidity, Min Humidity, Max Sea Level PressureIn, Mean Sea Level PressureIn, Min Sea Level PressureIn, Max VisibilityMiles, Mean VisibilityMiles, Min VisibilityMiles, Max Wind SpeedMPH, Mean Wind SpeedMPH, Max Gust SpeedMPH,PrecipitationIn, CloudCover, Events, WindDirDegrees
2012-11-1,88,76,66,72,67,52,96,75,33,30.07,30.01,29.97,10,8,0,24,7,37,0.00,2,Fog-Rain,137
2012-11-2,89,76,64,70,65,58,96,72,35,30.03,29.98,29.92,10,8,0,22,7,25,0.00,2,Fog-Rain,141
2012-11-3,90,78,67,72,67,61,96,72,39,30.06,30.00,29.94,10,9,1,18,9,25,0.00,2,Rain-Thunderstorm,135
2012-11-4,84,75,67,70,66,63,93,78,57,30.10,30.05,30.00,10,10,7,17,5,16,0.01,2,Rain-Thunderstorm,111
2012-11-5,88,74,61,72,65,57,97,76,35,30.08,30.02,29.95,10,6,0,14,2,,0.00,3,Fog-Rain,196
2012-11-6,84,73,61,69,53,42,92,52,24,30.15,30.09,29.99,10,10,5,17,8,24,0.00,0,Rain-Thunderstorm,73
2012-11-7,88,71,54,64,53,44,79,57,21,30.18,30.11,30.05,10,10,10,17,4,22,0.00,0,,155
2012-11-8,86,72,58,64,60,56,96,67,38,30.15,30.07,30.02,10,10,2,24,8,29,0.03,0,,153
2012-11-9,86,76,66,66,62,57,84,64,37,30.09,30.03,29.97,10,10,10,25,11,33,0.00,1,,147
2012-11-10,86,76,66,68,64,59,83,65,41,30.02,29.96,29.90,10,10,10,29,14,36,0.00,1,,147
2012-11-11,88,80,71,69,67,65,80,67,48,30.07,29.91,29.84,10,10,7,24,16,33,0.00,3,,157
2012-11-12,73,64,54,67,40,29,82,42,22,30.43,30.31,30.08,10,10,10,21,13,30,0.00,6,Rain,21
2012-11-13,60,56,52,52,41,31,87,59,40,30.43,30.36,30.27,10,10,7,17,11,21,0.03,6,Rain,33
2012-11-14,65,59,53,41,36,29,60,43,26,30.39,30.33,30.29,10,10,10,10,7,,0.00,8,,35
2012-11-15,68,64,59,56,44,35,69,49,37,30.30,30.24,30.18,10,10,10,15,6,17,0.00,8,,44
2012-11-16,71,61,51,51,43,36,67,48,29,30.33,30.28,30.23,10,10,10,15,8,18,0.00,6,,53
2012-11-17,74,62,49,54,46,38,75,60,34,30.36,30.30,30.26,10,10,10,12,7,,0.00,0,,54
2012-11-18,79,67,55,57,54,48,86,65,39,30.28,30.23,30.17,10,10,10,17,7,22,0.00,1,,88
2012-11-19,79,70,60,59,57,55,86,66,43,30.25,30.19,30.13,10,10,10,16,6,,0.00,4,,113
2012-11-20,80,69,58,62,59,54,90,68,46,30.22,30.18,30.12,10,10,7,10,3,,0.00,2,,126
2012-11-21,81,68,55,64,59,54,97,76,40,30.26,30.20,30.15,10,8,0,15,4,21,0.00,1,Fog,76
2012-11-22,84,70,55,64,59,54,97,70,38,30.18,30.12,30.06,10,7,0,18,8,24,0.00,4,Fog,140
2012-11-23,83,72,62,66,62,54,86,70,44,30.32,30.20,30.11,10,10,5,12,6,25,0.17,5,Rain-Thunderstorm,92
2012-11-24,72,62,52,54,40,30,75,47,22,30.38,30.28,30.18,10,10,10,15,8,20,0.03,4,,25
2012-11-25,76,62,49,66,55,43,91,75,58,30.17,30.04,29.95,10,10,10,12,5,,0.00,4,,117
2012-11-26,85,72,58,69,63,58,97,75,47,30.11,29.99,29.93,10,8,0,21,7,25,0.00,2,Fog-Rain,183
2012-11-27,71,62,51,65,49,42,86,59,39,30.35,30.26,30.08,10,10,10,21,9,29,0.00,1,Thunderstorm,2
2012-11-28,70,56,42,54,48,40,90,72,51,30.44,30.34,30.27,10,10,7,12,6,,0.00,0,,52
2012-11-29,76,65,54,63,57,50,88,74,54,30.27,30.19,30.11,10,10,7,12,7,,0.00,4,,78
2012-11-30,84,74,63,69,65,61,93,77,52,30.16,30.10,30.05,10,10,5,16,4,18,0.00,5,,147